Back to catalog

RELAY 1

A-15

AliveCommunicationsHEO
NORAD 503·PAYLOAD·🇺🇸 United States

Launched Dec 13, 1962 from Cape Canaveral Space Force Station

Loading…

Next Passes (next 24 hours)

TLE

FreshSource: Space-Track

Epoch: Sep 14, 2026, 04:35 UTC

1 00503U 62068A   26257.19120235 -.00000019  00000-0  00000-0 0  9996
2 00503  47.5163 311.5715 2834388 326.2953  38.9294  7.78169248812418

Track RELAY 1 in real time with AllMySat

Download on the App Store